EW9119 Weather Reports


time (UTC)temp
C
wind
direction
speed
KPH
gust
KPH
rain 1hr
cm
rain 24hr
cm
rain mn
cm
humidity
%
barometer
mb
20260502203037 14 172 0.0 0.0 0.00 0.00 0.00 49 1009.6
20260502201535 14 36 0.0 0.0 0.00 0.00 0.00 49 1009.7
20260502200031 14 171 0.0 0.0 0.00 0.00 0.00 48 1010.1
20260502194523 14 162 0.0 0.0 0.00 0.00 0.00 48 1010.5
20260502193018 14 146 0.0 0.0 0.00 0.00 0.00 49 1010.5
20260502191520 13 321 0.0 0.0 0.00 0.00 0.00 51 1010.7
20260502190024 13 228 0.0 0.0 0.00 0.00 0.00 53 1010.7
20260502184506 13 234 0.0 0.0 0.00 0.00 0.00 53 1011.0
20260502183005 13 170 0.0 0.0 0.00 0.00 0.00 50 1011.1
20260502181601 12 355 0.0 0.0 0.00 0.00 0.00 54 1011.2
20260502180122 12 128 0.0 0.0 0.00 0.00 0.00 57 1011.4
20260502163031 11 292 0.0 0.0 0.00 0.00 0.00 58 1012.6
20260502161526 11 329 0.0 0.0 0.00 0.00 0.00 56 1012.8
20260502151508 11 327 0.0 0.0 0.00 0.00 0.00 57 1013.2
20260502123021 10 84 0.0 0.0 0.00 0.00 0.00 62 1011.8
20260502121521 10 22 0.0 0.0 0.00 0.00 0.00 54 1012.0
20260502114508 10 262 0.0 0.0 0.00 0.00 0.00 45 1011.8
20260502113012 10 281 0.0 0.0 0.00 0.00 0.00 43 1011.9
20260502111602 10 329 0.0 0.0 0.00 0.00 0.00 31 1011.7
20260502110100 10 351 0.0 0.0 0.00 0.00 0.00 32 1011.8
20260502104553 10 20 0.0 0.0 0.00 0.00 0.00 22 1011.5
20260502103053 10 347 0.0 0.0 0.00 0.00 0.00 9 1011.8
20260502101604 10 288 0.0 0.0 0.00 0.00 0.00 1 1011.7
20260502091524 10 57 0.0 0.0 0.00 0.00 0.00 1 1011.7
20260502070046 11 57 0.0 0.0 0.00 0.00 0.00 1 1010.6
20260502064544 11 57 0.0 0.0 0.00 0.00 0.00 1 1010.9
20260502063039 11 57 0.0 0.0 0.00 0.00 0.00 1 1011.0
20260502061535 11 57 0.0 0.0 0.00 0.00 0.00 1 1011.1
20260502060028 11 57 0.0 0.0 0.00 0.00 0.00 2 1011.3
20260502054524 11 57 0.0 0.0 0.00 0.00 0.00 6 1011.2
20260502053020 11 57 0.0 0.0 0.00 0.00 0.00 9 1011.3
20260501234504 16 312 0.0 0.0 0.00 0.00 0.00 62 1009.2
20260501233059 16 109 0.0 0.0 0.00 0.00 0.00 62 1009.3
20260501231602 17 221 0.0 0.0 0.00 0.00 0.00 61 1009.2
20260501230053 17 139 0.0 0.0 0.00 0.00 0.00 60 1009.2
20260501224558 17 142 0.0 0.0 0.00 0.00 0.00 58 1009.2
20260501223044 18 161 0.0 0.0 0.00 0.00 0.00 57 1009.2
20260501221559 18 203 0.0 0.0 0.00 0.00 0.00 55 1009.2
20260501220043 18 58 0.0 0.0 0.00 0.00 0.00 57 1009.3
20260501214532 18 113 0.0 0.0 0.00 0.00 0.00 54 1009.4
20260501213032 18 302 0.0 0.0 0.00 0.00 0.00 52 1009.5
20260501211522 18 121 0.0 0.0 0.00 0.00 0.00 53 1009.6
20260501210018 18 90 0.0 0.0 0.00 0.00 0.00 51 1009.6
20260501204515 18 80 0.0 0.0 0.00 0.00 0.00 51 1009.7